Location: Iona
(26.5204°N, 81.9640°W)
Time: 05:07:15
(UTC+00:00)

Daily predictions for brighter satellites

Satellite Brightness Start Highest point End
(mag) Time Altitude Azimuth Time Altitude Azimuth Time Altitude Azimuth
Meteor 2-15 Rocket 4.3 00:02:40 10° S 00:08:48 79° E 00:14:55 10° N
Chunghua 1 4.3 00:05:07 10° WNW 00:08:52 78° NNE 00:08:58 77° NE
Cosmos 2266 Rocket 4.1 00:04:30 10° N 00:10:42 50° E 00:16:52 10° SSE
Cosmos 372 Rocket 4.1 00:11:04 10° NNW 00:16:18 76° WSW 00:21:31 10° S
Meteor 1-27 Rocket 3.5 00:11:25 10° S 00:16:55 68° E 00:19:10 36° NNE
Cosmos 1666 Rocket 4.5 00:13:52 10° NNW 00:18:06 48° W 00:22:18 10° SSW
CZ-2C R/B 2.0 00:15:38 10° W 00:19:37 41° NNW 00:19:38 41° NNW
Cosmos 1470 Rocket 3.8 00:22:13 56° SSE 00:22:13 56° SSE 00:25:50 10° S
ARGOS 3.6 00:17:52 10° S 00:23:13 63° WSW 00:28:35 10° NNW
Cosmos 2278 3.5 00:19:21 10° NNW 00:25:01 69° ENE 00:30:39 10° SSE
Aureole 3 Rocket 4.3 00:23:55 10° S 00:25:16 24° S 00:25:16 24° S
SL-08 RB Rocket 3.9 00:25:10 10° S 00:29:47 70° W 00:34:24 10° NNW
IRAS Rocket 4.3 00:28:34 26° N 00:31:46 73° WNW 00:37:16 10° SSW
GPS 2-15 Rocket1 4.2 00:30:39 10° WSW 00:34:51 34° S 00:34:55 34° S
Cosmos 1241 Rocket 4.4 00:30:58 10° SSW 00:37:25 86° WNW 00:39:04 53° NNE
NOAA 15 4.5 00:32:44 10° SSE 00:38:01 90° WSW 00:43:20 10° NNW
USA 234 3.4 00:33:46 10° SSE 00:40:18 72° SW 00:46:49 10° NW
Cosmos 1655 Rocket 4.1 00:36:53 10° N 00:43:16 78° W 00:49:34 10° S
NOSS 3-3 (A) 3.6 00:40:56 10° SSW 00:46:19 79° WNW 00:46:24 79° NW
NOSS 3-3 (C) 3.6 00:41:01 10° SSW 00:46:26 80° WNW 00:46:28 80° NW
H-2A R/B 3.0 00:49:34 47° WSW 00:49:34 47° WSW 00:53:04 10° SSW
BREEZE M DEB (TANK) 3.4 00:45:11 10° NW 00:55:31 66° WSW 00:55:31 66° WSW
Delta 128 4.4 00:49:20 10° W 00:54:35 62° WNW 00:54:35 62° WNW
CZ-4C R/B 3.2 01:13:19 10° NNW 01:21:21 77° WSW 01:21:47 75° SW
ATLAS 3B CENTAUR R/B 4.2 01:45:25 10° W 02:02:42 78° WNW 02:02:42 78° WNW
Cosmos 2082 Rocket 3.9 09:08:17 27° ESE 09:08:17 27° ESE 09:11:02 10° SE
Tsikada Rocket 4.5 09:22:35 10° SSE 09:28:35 57° E 09:34:40 10° NNE
Hubble Space Telescope 2.1 09:54:01 38° ESE 09:54:01 38° ESE 09:56:39 10° ESE
Cosmos 2263 4.5 09:48:07 10° S 09:53:42 67° ESE 09:59:21 10° NNE
CZ-3 R/B 4.0 09:32:50 10° SW 09:57:50 43° SSE 10:05:11 10° E
H-2A R/B 3.9 10:00:33 10° NNE 10:04:07 42° E 10:07:42 10° S
Cosmos 2369 Rocket 2.4 10:05:54 51° NNW 10:05:54 51° NNW 10:10:14 10° NNE
Gbstr 26 Del rocket 4.4 10:04:20 27° NNE 10:04:47 28° NE 10:08:33 10° ESE
Cosmos 1867 4.4 10:03:12 27° N 10:05:47 48° ENE 10:10:59 10° SE
YAOGAN 6 3.4 10:06:13 50° E 10:06:16 50° E 10:09:46 10° S
Meteor 2-13 Rocket 4.4 10:03:25 10° S 10:09:32 85° E 10:15:38 10° N
Cosmos 1486 Rocket 3.8 10:05:57 10° SSW 10:11:14 75° WNW 10:16:32 10° N
Chandra Rocket (1) 2.5 10:12:03 39° SSE 10:12:03 39° SSE 10:13:51 10° ESE
NATO 3D Rocket 4.3 10:14:21 38° SW 10:16:18 55° S 10:23:29 10° ESE
SJ-12 4.1 10:13:45 10° NNE 10:17:53 73° ESE 10:21:59 10° S
Cosmos 1656 Rocket 3.4 10:15:49 10° SSW 10:21:10 66° WNW 10:26:32 10° NNE
Iridium 2 3.9 10:18:37 10° S 10:22:21 67° E 10:26:07 10° N
Cosmos 841 Rocket 4.4 10:24:30 29° SW 10:24:30 29° SW 10:27:53 10° SSW
COSMO-SKYMED 1 4.0 10:24:55 10° SE 10:28:53 37° ENE 10:32:53 10° N
CZ-2C R/B 3.7 10:24:56 10° SE 10:30:12 46° ENE 10:35:22 10° N
OAO 1 4.5 10:33:27 36° WNW 10:35:47 90° SSW 10:41:18 10° ESE
Cosmos 1933 3.8 10:38:40 39° W 10:38:40 39° W 10:42:12 10° SSW
Cosmos 2098 Rocket 2.7 10:38:07 10° SSW 10:41:26 52° W 10:45:32 10° N
Envisat 3.0 10:39:32 10° N 10:44:29 56° WNW 10:49:26 10° SSW
Uosat 12 SS-18 rocket 4.3 10:41:19 10° SSW 10:45:53 87° WNW 10:51:27 10° NNE
Cosmos 2082 Rocket 3.8 10:50:13 15° WSW 10:50:13 15° WSW 10:52:36 10° SW
Cosmos 1174 3.6 10:48:07 10° SSW 10:51:13 61° ESE 10:54:09 10° NNE
Genesis I 3.4 10:52:06 14° NNW 10:55:29 75° ENE 10:59:28 10° SSE
Stardust Del rocket 3.9 10:56:36 20° WSW 10:58:13 38° S 11:02:20 10° ESE
OAO 3 Rocket 3.3 10:55:21 23° WNW 10:58:25 70° SSW 11:03:20 10° SE
Cosmos 2279 Rocket 4.1 10:52:17 10° N 10:58:29 81° E 11:04:41 10° S
MOS 1-B Rocket 4.2 10:56:10 10° S 11:02:55 60° WSW 11:08:49 10° NNW
ATLAS 3B R/B 2.7 10:56:50 10° SSW 11:03:15 81° ESE 11:09:52 10° NNE
Cosmos 1354 Rocket 4.2 10:59:43 10° SSW 11:04:45 47° WNW 11:09:50 10° N
NOAA 11 4.2 10:59:56 10° NNE 11:05:26 88° WNW 11:10:56 10° SSW
SJ 16-02 1.6 11:01:33 10° S 11:05:54 72° ESE 11:10:15 10° NNE
Cosmos 1812 2.9 11:04:44 10° NNW 11:08:26 47° W 11:12:06 10° SSW
Cosmos 1939 Rocket 4.2 11:07:58 10° NNE 11:11:39 41° E 11:15:17 10° S
Landsat 5 3.6 11:09:23 10° S 11:13:51 80° WSW 11:18:22 10° NNW
Cosmos 1634 Rocket 4.4 11:09:21 10° NNW 11:15:06 40° W 11:20:49 10° SSW
Meteor PRIRODA 3.5 11:11:59 10° N 11:15:36 86° W 11:19:13 10° SSW
CZ-4C R/B 2.9 11:13:07 10° SSE 11:16:16 74° ENE 11:19:23 10° N
SKYMED 2 3.8 11:12:40 10° S 11:16:52 50° W 11:21:05 10° NNW
ATLAS 5 CENTAUR R/B 1.5 11:14:22 10° SW 11:17:53 40° WNW 11:21:34 10° NNE
ADEOS 3.7 11:13:37 10° N 11:18:41 53° WNW 11:23:43 10° SSW
Cosmos 1500 Rocket 3.9 11:15:52 10° S 11:20:16 71° E 11:24:43 10° N
SL-4 R/B 2.4 11:18:28 10° SSW 11:21:49 54° SE 11:25:18 10° NE
Meteor 2-6 Rocket 4.1 11:16:39 10° NNW 11:21:59 66° W 11:27:19 10° S
USA 215 4.5 11:22:54 10° ESE 11:28:45 36° NE 11:34:34 10° NNW
Meteor 1-31 Rocket 4.3 11:28:01 10° NW 11:30:25 16° WNW 11:32:49 10° WSW
CZ-2C R/B 3.0 11:26:27 10° N 11:31:21 63° WNW 11:36:32 10° SSW
OE (NEXTSAT) 4.3 11:28:25 10° NW 11:31:48 73° SW 11:35:12 10° SE
Meteor 2-15 4.4 11:26:47 10° N 11:32:50 81° W 11:38:53 10° S
Centaur D-1A AC-35 2.3 11:29:09 10° W 11:33:15 75° S 11:37:30 10° E
Hubble Space Telescope 2.4 11:30:06 10° W 11:33:28 24° SSW 11:36:50 10° SSE
H-2A R/B 3.4 11:30:34 10° SE 11:34:30 41° ENE 11:38:32 10° N
Cosmos 921 Rocket 4.2 11:32:10 10° NW 11:35:46 24° W 11:39:23 10° SSW
Cosmos 1833 4.4 11:31:33 10° NNW 11:37:17 84° ENE 11:43:02 10° SSE
Fermi 4.0 11:35:35 10° W 11:39:34 63° S 11:43:34 10° ESE
Lacrosse 5 4.1 11:36:09 10° S 11:40:35 31° ESE 11:45:03 10° ENE
